Weather History for KMNM - December, 2010

Change the Weather History Date:

Wednesday, December 1, 2010

  Actual Average Record
Temperature  
Mean Temperature 26 °F -  
Max Temperature 28 °F 36 °F 60 °F (1962)
Min Temperature 24 °F 21 °F -1 °F (1966)
Degree Days  
Heating Degree Days 39    
Moisture  
Dew Point 15 °F    
Average Humidity 61    
Maximum Humidity 69    
Minimum Humidity 55    
Precipitation  
Precipitation 0.00 in - - ()
Sea Level Pressure  
Sea Level Pressure 29.75 in    
Wind  
Wind Speed 8 mph (WNW)    
Max Wind Speed 12 mph    
Max Gust Speed 20 mph    
Visibility 9 miles    
Events      
Averages and records for this station are not official NWS values.
T = Trace of Precipitation, MM = Missing Value Source: NWS Daily Summary

Daily Weather History Graph

Daily Weather History Graph

Search for Another Location

Airport or City:

Trip Planner

Search our weather history database for the weather conditions in past years. The results will help you decide how hot, cold, wet, or windy it might be!

Date:

Astronomy

Dec. 01, 2010 Rise Set
Actual Time 7:08 AM CST 4:10 PM CST
Civil Twilight 6:35 AM CST 4:43 PM CST
Nautical Twilight 5:59 AM CST 5:19 PM CST
Astronomical Twilight 5:23 AM CST 5:55 PM CST
Moon 2:25 AM CST (12/1) 1:19 PM CST (12/1)
Length of Visible Light 10h 07m
Length of Day
9h 01m
Waning Crescent, 19% of the Moon is Illuminated
Dec 1
Waning Crescent
Dec 5
New
Dec 13
First Quarter
Dec 21
Full
Dec 27
Last Quarter

Hourly Weather History & Observations

Time (CST) Temp. Windchill Dew Point Humidity Pressure Visibility Wind Dir Wind Speed Gust Speed Precip Events Conditions
12:35 AM 26.6 °F 21.2 °F 14.0 °F 59% 29.63 in 10.0 mi NW 4.6 mph - N/A   Overcast
1:15 AM 26.6 °F 21.2 °F 14.0 °F 59% 29.63 in 10.0 mi West 4.6 mph - N/A   Overcast
1:35 AM 26.6 °F 18.2 °F 15.8 °F 64% 29.64 in 10.0 mi West 8.1 mph - N/A   Overcast
1:55 AM 26.6 °F 19.1 °F 14.0 °F 59% 29.64 in 10.0 mi West 6.9 mph 16.1 mph N/A   Overcast
2:35 AM 26.6 °F 16.8 °F 15.8 °F 64% 29.65 in 10.0 mi West 10.4 mph - N/A   Overcast
2:55 AM 26.6 °F 17.5 °F 14.0 °F 59% 29.65 in 10.0 mi WNW 9.2 mph - N/A   Overcast
3:15 AM 26.6 °F 17.5 °F 14.0 °F 59% 29.66 in 10.0 mi West 9.2 mph - N/A   Overcast
3:35 AM 26.6 °F 17.5 °F 14.0 °F 59% 29.66 in 10.0 mi WNW 9.2 mph 16.1 mph N/A   Overcast
3:55 AM 26.6 °F 17.5 °F 12.2 °F 55% 29.67 in 10.0 mi WNW 9.2 mph - N/A   Overcast
4:15 AM 26.6 °F 19.1 °F 14.0 °F 59% 29.67 in 10.0 mi WNW 6.9 mph - N/A   Overcast
4:35 AM 26.6 °F 17.5 °F 12.2 °F 55% 29.67 in 10.0 mi WNW 9.2 mph 16.1 mph N/A   Overcast
4:55 AM 26.6 °F 16.8 °F 12.2 °F 55% 29.68 in 10.0 mi WNW 10.4 mph - N/A   Overcast
5:15 AM 26.6 °F 17.5 °F 12.2 °F 55% 29.68 in 10.0 mi WNW 9.2 mph - N/A   Overcast
5:35 AM 24.8 °F 16.9 °F 12.2 °F 59% 29.68 in 10.0 mi WNW 6.9 mph - N/A   Overcast
5:55 AM 24.8 °F 16.1 °F 12.2 °F 59% 29.68 in 10.0 mi WNW 8.1 mph - N/A   Overcast
6:35 AM 24.8 °F 16.1 °F 12.2 °F 59% 29.69 in 10.0 mi West 8.1 mph - N/A   Overcast
7:15 AM 24.8 °F 15.3 °F 12.2 °F 59% 29.70 in 10.0 mi WNW 9.2 mph - N/A   Overcast
7:35 AM 24.8 °F 15.3 °F 12.2 °F 59% 29.70 in 10.0 mi WNW 9.2 mph - N/A   Overcast
7:55 AM 24.8 °F 16.1 °F 12.2 °F 59% 29.70 in 10.0 mi WNW 8.1 mph 18.4 mph N/A   Overcast
8:15 AM 24.8 °F 14.0 °F 12.2 °F 59% 29.70 in 10.0 mi WNW 11.5 mph - N/A   Overcast
8:35 AM 24.8 °F 16.1 °F 12.2 °F 59% 29.70 in 10.0 mi WNW 8.1 mph - N/A   Overcast
9:15 AM 24.8 °F 14.6 °F 12.2 °F 59% 29.71 in 5.0 mi West 10.4 mph - N/A   Overcast
9:35 AM 24.8 °F 15.3 °F 12.2 °F 59% 29.72 in 3.0 mi West 9.2 mph - N/A   Overcast
10:15 AM 24.8 °F 16.1 °F 14.0 °F 64% 29.72 in 3.0 mi West 8.1 mph 16.1 mph N/A   Overcast
10:35 AM 24.8 °F 16.1 °F 15.8 °F 69% 29.72 in 3.0 mi West 8.1 mph - N/A   Overcast
10:55 AM 24.8 °F 15.3 °F 15.8 °F 69% 29.72 in 3.0 mi West 9.2 mph - N/A   Overcast
11:15 AM 24.8 °F 15.3 °F 14.0 °F 64% 29.71 in 4.0 mi WNW 9.2 mph 17.3 mph N/A   Overcast
11:55 AM 24.8 °F 15.3 °F 15.8 °F 69% 29.71 in 3.0 mi West 9.2 mph - N/A   Overcast
12:15 PM 24.8 °F 14.6 °F 15.8 °F 69% 29.71 in 3.0 mi WNW 10.4 mph 17.3 mph N/A   Overcast
12:35 PM 24.8 °F 15.3 °F 15.8 °F 69% 29.71 in 4.0 mi West 9.2 mph 18.4 mph N/A   Overcast
12:55 PM 24.8 °F 14.6 °F 15.8 °F 69% 29.71 in 6.0 mi WNW 10.4 mph - N/A   Overcast
1:15 PM 26.6 °F 18.2 °F 15.8 °F 64% 29.71 in 8.0 mi West 8.1 mph 16.1 mph N/A   Overcast
1:35 PM 26.6 °F 16.8 °F 15.8 °F 64% 29.72 in 10.0 mi West 10.4 mph - N/A   Overcast
1:55 PM 26.6 °F 16.2 °F 17.6 °F 69% 29.72 in 8.0 mi WNW 11.5 mph 17.3 mph N/A   Overcast
2:15 PM 26.6 °F 17.5 °F 17.6 °F 69% 29.73 in 10.0 mi WNW 9.2 mph 18.4 mph N/A   Overcast
2:35 PM 26.6 °F 17.5 °F 17.6 °F 69% 29.73 in 9.0 mi West 9.2 mph 19.6 mph N/A   Overcast
2:55 PM 28.4 °F 19.7 °F 17.6 °F 64% 29.74 in 10.0 mi WNW 9.2 mph - N/A   Overcast
3:15 PM 28.4 °F 20.4 °F 17.6 °F 64% 29.75 in 10.0 mi West 8.1 mph - N/A   Overcast
3:35 PM 28.4 °F 21.2 °F 17.6 °F 64% 29.76 in 10.0 mi West 6.9 mph - N/A   Overcast
3:55 PM 28.4 °F 19.1 °F 17.6 °F 64% 29.77 in 9.0 mi West 10.4 mph - N/A   Overcast
4:15 PM 28.4 °F 21.2 °F 17.6 °F 64% 29.78 in 6.0 mi West 6.9 mph - N/A   Overcast
4:35 PM 28.4 °F 22.2 °F 17.6 °F 64% 29.78 in 10.0 mi West 5.8 mph - N/A   Overcast
4:55 PM 28.4 °F 21.2 °F 15.8 °F 59% 29.79 in 10.0 mi West 6.9 mph - N/A   Overcast
5:15 PM 28.4 °F 20.4 °F 17.6 °F 64% 29.80 in 10.0 mi WNW 8.1 mph - N/A   Overcast
5:35 PM 28.4 °F 20.4 °F 17.6 °F 64% 29.80 in 10.0 mi WNW 8.1 mph - N/A   Overcast
5:55 PM 28.4 °F 20.4 °F 15.8 °F 59% 29.81 in 10.0 mi WNW 8.1 mph - N/A   Overcast
6:15 PM 28.4 °F 21.2 °F 15.8 °F 59% 29.82 in 10.0 mi WNW 6.9 mph 19.6 mph N/A   Overcast
6:35 PM 28.4 °F 21.2 °F 15.8 °F 59% 29.82 in 10.0 mi WNW 6.9 mph - N/A   Overcast
6:55 PM 28.4 °F 19.1 °F 15.8 °F 59% 29.83 in 10.0 mi WNW 10.4 mph 16.1 mph N/A   Overcast
7:15 PM 28.4 °F 20.4 °F 15.8 °F 59% 29.84 in 10.0 mi WNW 8.1 mph - N/A   Overcast
7:35 PM 28.4 °F 20.4 °F 15.8 °F 59% 29.84 in 10.0 mi West 8.1 mph - N/A   Overcast
7:55 PM 28.4 °F 19.7 °F 15.8 °F 59% 29.84 in 10.0 mi WNW 9.2 mph - N/A   Overcast
8:15 PM 28.4 °F 21.2 °F 15.8 °F 59% 29.85 in 10.0 mi WNW 6.9 mph - N/A   Overcast
8:35 PM 28.4 °F 21.2 °F 15.8 °F 59% 29.86 in 10.0 mi NW 6.9 mph - N/A   Overcast
9:15 PM 28.4 °F 22.2 °F 14.0 °F 55% 29.86 in 10.0 mi WNW 5.8 mph - N/A   Overcast
9:35 PM 28.4 °F 21.2 °F 14.0 °F 55% 29.86 in 10.0 mi WNW 6.9 mph - N/A   Overcast
9:55 PM 28.4 °F 19.7 °F 14.0 °F 55% 29.86 in 10.0 mi NW 9.2 mph - N/A   Overcast
10:15 PM 26.6 °F 19.1 °F 14.0 °F 59% 29.86 in 10.0 mi WNW 6.9 mph - N/A   Overcast
10:35 PM 26.6 °F 17.5 °F 15.8 °F 64% 29.86 in 10.0 mi WNW 9.2 mph - N/A   Overcast
10:55 PM 26.6 °F 16.8 °F 14.0 °F 59% 29.87 in 10.0 mi West 10.4 mph - N/A   Overcast
11:15 PM 26.6 °F 20.0 °F 14.0 °F 59% 29.87 in 10.0 mi WNW 5.8 mph - N/A   Overcast
11:35 PM 26.6 °F 19.1 °F 15.8 °F 64% 29.88 in 10.0 mi WNW 6.9 mph - N/A   Overcast
11:55 PM 26.6 °F 18.2 °F 15.8 °F 64% 29.88 in 10.0 mi WNW 8.1 mph - N/A   Overcast